Regional Weather Roundup
Issued by NWS

Home | Current Version | Previous Version | Graphics & Text | Print | Product List | Glossary On
Versions: 1 2 3 4 5 6 7 8 9 10 11 12 13 14 15 16 17 18 19 20 21 22 23 24 25 26 27
000
ASUS45 KTFX 301410
RWRMT
MONTANA REGIONAL WEATHER ROUNDUP
NATIONAL WEATHER SERVICE GREAT FALLS MT
800 AM MDT MON MAY 30 2016

NOTE: "FAIR" INDICATES FEW OR NO CLOUDS BELOW 12000 FEET WITH NO
SIGNIFICANT WEATHER AND/OR OBSTRUCTIONS TO VISIBILITY.

MTZ001>007-043-301500-
WEST OF THE DIVIDE

CITY           SKY/WX    TMP DP  RH WIND       PRES   REMARKS
KALISPELL      SUNNY     49  43  80 CALM      30.13R
MISSOULA       SUNNY     51  46  83 CALM      30.13R
BUTTE          PTSUNNY   46  37  71 CALM      30.13R
MULLAN PASS    SUNNY     35  30  82 NW6       30.16R WCI  30
ANACONDA         N/A     48  37  66 W12       30.12R
DEER LODGE       N/A     48  41  76 S3        30.13R
EUREKA           N/A     45  43  93 CALM      30.17R
HAMILTON         N/A     55  37  50 W9        30.13S
LIBBY            N/A     46  39  76 CALM      30.18R
$$

MTZ008-052>055-301500-
SOUTHWEST MONTANA

CITY           SKY/WX    TMP DP  RH WIND       PRES   REMARKS
BOZEMAN        CLOUDY    52  47  83 CALM      30.08R
DILLON         SUNNY     51  36  56 S7        30.12R
W YELLOWSTONE  CLOUDY    46  39  76 NW5       30.13S
ENNIS          MOSUNNY   50  41  71 SE6       30.16R
$$

MTZ009-010-012-014-046-048-049-054-301500-
EAST SLOPES AND CENTRAL MONTANA

CITY           SKY/WX    TMP DP  RH WIND       PRES   REMARKS
CUT BANK       PTSUNNY   42  38  85 NW28G35   30.08R
GREAT FALLS    LGT RAIN  45  41  86 N7        30.08R
MALMSTROM AFB  SHOWER    47  43  87 NW13      30.08R
HELENA         PTSUNNY   58  37  45 NW8       30.08R
CHOTEAU          N/A     46  39  76 NW23      30.10R
$$

MTZ011-013-016-021-045-047-050-051-301500-
NORTH CENTRAL MONTANA

CITY           SKY/WX    TMP DP  RH WIND       PRES   REMARKS
HAVRE          RAIN      48  45  89 W8        30.00R FOG
LEWISTOWN      CLOUDY    56  44  64 SW12      30.01R
N BAR RANCH      N/A     55  45  67 NW3       30.02S
CHINOOK          N/A     50  46  87 W8        29.99R
$$

MTZ017>020-022>027-061-062-301500-
NORTHEAST MONTANA

CITY           SKY/WX    TMP DP  RH WIND       PRES   REMARKS
GLASGOW        LGT RAIN  59  50  72 W3        29.92S
JORDAN           N/A     56  51  84 W6        29.95S
SIDNEY         RAIN      53  49  86 SW12      29.93S
WOLF POINT     CLOUDY    61  46  57 W13       29.92R
POPLAR           N/A     57  46  67 NW5       29.91R
$$

MTZ028>42-056>058-301500-
SOUTHCENTRAL AND SOUTHEAST MONTANA

CITY           SKY/WX    TMP DP  RH WIND       PRES   REMARKS
BAKER          CLOUDY    59  51  75 NE15      29.88F THUNDER
BILLINGS       CLOUDY    57  49  74 W12       30.01R
LIVINGSTON     CLOUDY    51  44  77 SW5       30.07S
MILES CITY     CLOUDY    58  51  78 N8        29.94S
FORSYTH          N/A     57  52  82 NW3       29.96R
$$

REGIONAL REPORTS...DAKOTAS

CITY           SKY/WX    TMP DP  RH WIND       PRES   REMARKS
WILLISTON      CLOUDY    56  46  69 SW6       29.91R
MINOT          SUNNY     67  52  58 CALM      29.89S
DICKINSON      CLOUDY    60  51  72 SE8       29.88F
BEACH            N/A     54  54 100 N14       29.92F
CROSBY           N/A     61  48  63 S7        29.91S
WATFORD CITY     N/A     54  46  76 W7        29.92R
BISMARCK       SUNNY     63  56  78 E6        29.91F
GRAND FORKS    PTSUNNY   67  52  58 W9        29.93R THUNDER
FARGO          SUNNY     67  52  58 S8        29.93F
BUFFALO SD       N/A     58  52  80 NW9       29.83R
RAPID CITY     CLOUDY    57  54  89 SE3       29.87F
$$

REGIONAL REPORTS...WYOMING/IDAHO/WASHINGTON

CITY           SKY/WX    TMP DP  RH WIND       PRES   REMARKS
GILLETTE         N/A     57  43  59 NW15      29.94R
SHERIDAN       MOSUNNY   55  47  74 NW9       30.01R
BUFFALO WY     CLOUDY    53  44  71 NW25      29.99R
CODY           CLOUDY    52  43  71 N8        30.05R
YELLOWSTONE LA   N/A     43  38  82 CALM      30.18S
IDAHO FALLS    SUNNY     53  44  71 SW10      30.10R
SALMON         SUNNY     52  39  62 N5        30.13R
BOISE          MOSUNNY   53  39  59 NW9       30.15R
SPOKANE        MOSUNNY   49  37  63 W6        30.19R
$$

REGIONAL REPORTS...ALBERTA

CITY           SKY/WX    TMP DP  RH WIND       PRES   REMARKS
EDMONTON       CLOUDY    45  39  81 NW10G17   30.07R
CALGARY        PTSUNNY   45  36  70 NW18G26   30.07R
LETHBRIDGE     LGT RAIN  45  41  87 W22G29    30.07R
MEDICINE HAT   LGT RAIN  48  45  87 NW21G28   29.95R
WATERTON GATE    N/A     41  37  87 S9          N/A
CARDSTON         N/A     41  39  93 W7          N/A
$$

REGIONAL REPORTS...SASKATCHEWAN

CITY           SKY/WX    TMP DP  RH WIND       PRES   REMARKS
SWIFT CURRENT  MOSUNNY   52  45  76 W17       29.88R
REGINA         PTSUNNY   54  46  76 NE3       29.88S
SASKATOON      CLOUDY    50  48  93 NE15      29.95S
CYPRESS HILLS    N/A     45  39  81 NW8         N/A
VAL MARIE        N/A     50  46  87 S6          N/A
ROCKGLEN         N/A     54  43  66 S10         N/A
ASSINIBOIA       N/A     48  48 100 NW14G20     N/A
$$




USA.gov is the U.S. government's official web portal to all federal, state and local government web resources and services.